Flag for Australia Weather past 2 weeks in Hobart, Tasmania, Australia

Now
48 °F

Partly sunny.


Feels Like: 46 °F
Forecast: 39 / 73 °F
Wind: 5 mph from Northwest

Location: Hobart Airport

Current Time: Mar 2, 2015 at 8:51:10 AM

Latest Report: Mar 2, 2015 at 8:00 AM


Visibility: N/A

Pressure: 30.09 "Hg

Humidity: 71%

Dew point: 39 °F

Location of HobartLocation

Historic Weather in Hobart — Graph

°F

Hobart temperature yesterday

Maximum temperature yesterday: 68 °F (at 1:30 PM)
Minimum temperature yesterday: 52 °F (at 11:00 PM)
Average temperature yesterday: 61 °F

Past Weeks' High & Low Weather Summary

 TemperatureHumidityPressure
High97 °F (Feb 22, 3:00 PM)100% (Feb 18, 2:30 AM)30.27 "Hg (Feb 18, 2:30 AM)
Low43 °F (Mar 2, 3:30 AM)19% (Feb 22, 3:00 PM)29.39 "Hg (Feb 28, 7:30 PM)
Average64 °F65%29.94 "Hg
* Reported Feb 15 7:00 AM — Mar 2 7:00 AM, Hobart, Weather by CustomWeather, © 2015

Note: Actual official high and low records may vary slightly from our data, if they occured in-between our weather recording intervals... More about our weather records

Advertising

Hobart weather history for previous 24 hours

 ConditionsComfort  
Time TempWeatherWind HumidityBarometerVisibility
7:00 AM
Mon, Mar 2
46 °FPartly sunny.7 mph82%30.07 "HgN/A
6:30 AM46 °FPassing clouds.6 mph76%30.07 "HgN/A
6:00 AM45 °FPassing clouds.3 mph81%30.07 "HgN/A
5:30 AM43 °FPassing clouds.6 mph81%30.07 "HgN/A
5:00 AM43 °FPassing clouds.6 mph87%30.07 "HgN/A
4:30 AM45 °FPassing clouds.5 mph87%30.07 "HgN/A
4:00 AM45 °FPassing clouds.5 mph81%30.07 "HgN/A
3:30 AM43 °FPassing clouds.No wind81%30.07 "HgN/A
3:00 AM46 °FPassing clouds.2 mph71%30.07 "HgN/A
2:00 AM48 °FPassing clouds.No wind66%30.04 "HgN/A
1:30 AM48 °FPassing clouds.1 mph71%30.07 "HgN/A
1:00 AM46 °FPassing clouds.No wind76%30.07 "HgN/A
12:30 AM46 °FPassing clouds.No wind76%30.04 "HgN/A
12:00 AM46 °FPassing clouds.No wind76%30.04 "HgN/A
11:30 PM
Sun, Mar 1
52 °FPassing clouds.6 mph62%30.04 "HgN/A
11:00 PM52 °FPassing clouds.6 mph62%30.04 "HgN/A
10:00 PM54 °FClear.3 mph67%30.04 "Hg10 mi
9:30 PM54 °FClear.3 mph63%30.04 "Hg10 mi
9:00 PM57 °FPassing clouds.7 mph48%30.01 "HgN/A
8:30 PM57 °FPassing clouds.10 mph48%29.98 "HgN/A
8:00 PM59 °FPassing clouds.13 mph48%29.98 "HgN/A
7:30 PM59 °FPassing clouds.14 mph48%29.95 "HgN/A
7:00 PM61 °FPassing clouds.15 mph55%29.92 "HgN/A
6:00 PM63 °FPassing clouds.14 mph52%29.92 "HgN/A
5:00 PM61 °FPassing clouds.17 mph59%29.89 "HgN/A
4:30 PM61 °FScattered clouds.13 mph59%29.89 "HgN/A
4:00 PM63 °FBroken clouds.15 mph59%29.86 "HgN/A
3:30 PM64 °FScattered showers. Partly sunny.15 mph52%29.86 "HgN/A
3:00 PM61 °FSprinkles. Broken clouds.13 mph59%29.86 "HgN/A
2:00 PM64 °FScattered showers. Scattered clouds.16 mph46%29.80 "HgN/A
1:30 PM68 °FScattered clouds.15 mph40%29.80 "HgN/A
1:00 PM64 °FScattered showers. Broken clouds.10 mph46%29.80 "HgN/A
12:30 PM64 °FBroken clouds.13 mph43%29.80 "HgN/A
12:00 PM64 °FScattered clouds.14 mph46%29.77 "HgN/A
11:00 AM63 °FPartly sunny.16 mph49%29.77 "HgN/A
10:00 AM63 °FPartly sunny.16 mph52%29.71 "HgN/A
9:30 AM61 °FScattered clouds.13 mph55%29.71 "HgN/A
9:00 AM61 °FBroken clouds.15 mph55%29.68 "HgN/A
8:00 AM57 °FPassing clouds.8 mph72%29.65 "HgN/A
Weather by CustomWeather, © 2015

See weather overviewHow to use our weather pages